Location: B?ve
(50.0706°N, 14.2433°E)
Time: 06:55:08
(UTC+00:00)

Daily predictions for brighter satellites

Satellite Brightness Start Highest point End
(mag) Time Altitude Azimuth Time Altitude Azimuth Time Altitude Azimuth
Cosmos 773 Rocket 4.4 19:41:54 10° NNW 19:47:09 67° WSW 19:52:23 10° S
ASTEX 1 4.1 19:43:01 10° NNE 19:47:29 35° E 19:51:54 10° SSE
Cosmos 2297 Rocket 4.4 19:46:52 10° N 19:50:23 16° NNE 19:53:54 10° ENE
Cosmos 1340 Rocket 3.3 19:53:28 10° NNW 19:57:16 56° W 20:01:01 10° S
Ariane Rocket 3.4 19:53:20 10° SE 19:58:11 50° ENE 20:03:03 10° N
SAR-Lupe-2 4.1 19:55:30 10° SE 19:58:55 44° ENE 20:02:23 10° N
CZ-4B R/B 4.1 19:56:27 10° SSW 19:59:46 35° W 20:03:16 10° NNW
CZ-4C R/B 2.7 19:56:14 10° S 19:59:47 25° ESE 20:04:01 10° ENE
ISS -3.4 19:56:46 10° W 20:00:05 65° N 20:03:26 10° E
Okean 2 Rocket 3.1 19:56:35 10° N 20:00:57 68° ENE 20:05:18 10° SSE
Cosmos 2263 4.4 19:57:05 10° S 20:02:32 51° ESE 20:07:59 10° NE
Cosmos 1869 3.0 19:59:51 10° NNW 20:03:27 84° W 20:06:59 10° S
Cosmos 1777 Rocket 4.0 20:02:23 10° SSW 20:07:36 82° ESE 20:12:49 10° NNE
Cosmos 2151 Rocket 3.7 20:03:14 10° N 20:07:46 85° W 20:12:15 10° S
BREEZE-M DEB (TANK) 3.3 20:06:42 10° S 20:08:52 22° SE 20:12:48 10° E
SOZ 4.3 20:07:41 10° SW 20:10:14 52° SSE 20:12:29 10° ENE
Cosmos 44 3.7 20:07:42 10° S 20:11:30 32° ESE 20:15:25 10° NE
Nadezhda 4 Rocket 4.2 20:07:59 10° SSE 20:14:05 55° E 20:20:15 10° NNE
Lacrosse 5 rocket 3.2 20:11:05 10° WNW 20:14:31 29° N 20:18:01 10° ENE
Okean 1 Rocket 3.0 20:10:45 10° N 20:15:08 74° E 20:19:24 10° SSE
Helios 1A 3.0 20:13:20 10° NNE 20:17:17 78° WNW 20:21:14 10° SSW
Helios 1B rocket 3.9 20:14:02 10° SSW 20:17:18 30° W 20:20:35 10° NW
Cosmos 1515 4.3 20:17:02 10° NNE 20:19:10 22° ENE 20:20:37 15° ESE
Cosmos 2221 Rocket 3.6 20:16:35 10° S 20:21:04 71° E 20:25:36 10° NNE
Cosmos 2285 Rocket 4.5 20:16:21 10° S 20:22:16 42° ESE 20:28:15 10° NE
Gbstr 26 Del rocket 3.7 20:19:36 10° W 20:24:28 76° N 20:30:30 10° E
Terra 3.0 20:20:50 10° SSW 20:25:14 39° W 20:29:40 10° NNW
NOSS 3-4 (A) 4.3 20:19:05 10° NW 20:25:43 58° SW 20:33:06 12° SSE
NOSS 3-4 (C) 4.2 20:19:07 10° NW 20:25:46 58° SW 20:33:06 12° SSE
Cosmos 1455 Rocket 3.5 20:22:32 10° N 20:26:43 47° ENE 20:30:04 15° SE
SPOT 3 Rocket 3.6 20:23:33 10° SSE 20:28:43 86° WSW 20:33:58 10° NNW
Cosmos 2026 Rocket 4.5 20:27:46 12° SSE 20:32:55 42° E 20:38:33 10° NNE
Spot 2 Rocket 4.2 20:28:06 10° S 20:33:03 52° W 20:38:02 10° NNW
Sich 1 Rocket 3.9 20:28:39 10° NNW 20:33:12 68° W 20:37:42 10° S
IRS-1C Rocket 4.4 20:32:33 10° S 20:37:45 65° WSW 20:43:01 10° NNW
Cosmos 1818 4.1 20:33:08 10° NW 20:38:27 53° WSW 20:42:53 14° SSE
Cosmos 1674 Rocket 4.2 20:35:05 10° SSW 20:39:25 56° WNW 20:43:49 10° N
ATLAS 5 CENTAUR R/B 4.4 20:38:20 10° NNW 20:39:46 12° N 20:41:16 10° NNE
Cosmos 1898 Rocket 4.3 20:36:10 15° SSE 20:39:46 31° ESE 20:44:21 10° NE
Cosmos 1833 4.4 20:34:17 10° NNW 20:39:56 68° WSW 20:44:42 14° SSE
Cosmos 1538 Rocket 4.1 20:38:10 10° NNW 20:43:35 79° ENE 20:47:45 17° SSE
Cosmos 2297 4.4 20:44:27 10° SW 20:50:01 59° NW 20:55:40 10° NNE
PSLV R/B 3.3 20:49:19 19° S 20:51:26 70° WSW 20:54:33 10° NNW
Cosmos 1812 2.5 20:48:25 10° NNW 20:51:34 62° W 20:53:43 18° S
Meteor 1-11 4.4 20:47:37 10° SSW 20:53:27 79° WNW 20:59:16 10° N
Cosmos 1092 Rocket 4.2 20:50:30 15° SSE 20:55:43 57° E 21:01:53 10° NNE
ARIANE 5 R/B 4.2 20:53:15 13° ESE 20:56:13 25° ENE 20:59:49 10° N
Meteor 2-1 Rocket 4.5 20:50:57 10° NNW 20:56:47 72° W 21:01:41 14° S
Cosmos 1900 4.5 20:52:01 10° SSW 20:56:54 54° ESE 21:01:52 10° NE
ATLAS 2AS CENTAUR R/B 4.4 20:52:00 10° NW 20:57:53 29° NNE 21:03:39 10° ENE
Okean O Rocket 4.2 20:56:29 10° WSW 20:58:52 14° W 21:01:17 10° NW
BlueWalker 3 2.2 20:55:56 10° WNW 20:59:36 63° NNE 21:03:04 11° E
Cosmos 1025 Rocket 3.7 20:55:43 10° SSW 20:59:57 54° WNW 21:04:15 10° N
Cosmos 990 Rocket 4.1 20:55:02 10° SSW 21:00:12 77° WNW 21:05:27 10° NNE
Aureole 1 Rocket 4.2 21:03:35 10° S 21:10:06 70° ESE 21:17:34 10° NNE
DELTA 2 DEB (DPAF) 4.4 21:06:39 10° NNE 21:10:20 38° E 21:11:59 25° SSE
RESURS DK-1 3.1 21:10:58 10° NNW 21:14:48 42° NE 21:17:10 20° ESE
Cosmos 1544 Rocket 4.0 21:12:58 10° N 21:17:13 50° ENE 21:19:31 25° SE
Cosmos 372 Rocket 3.9 21:14:58 15° SSW 21:19:14 70° ESE 21:24:19 10° NNE
USA 215 3.8 21:13:50 10° E 21:20:14 59° NNE 21:26:39 10° WNW
DNEPR-1 R/B 3.6 21:18:07 10° NW 21:22:18 65° SW 21:24:32 27° SSE
Cosmos 2369 Rocket 3.8 21:20:16 10° WSW 21:25:32 37° NW 21:30:48 10° NNE
Cosmos 1400 Rocket 3.3 21:23:04 10° N 21:26:46 43° ENE 21:28:20 27° SE
Cosmos 2058 4.4 21:25:46 19° ESE 21:26:47 20° E 21:29:45 10° NE
Cosmos 2112 Rocket 4.4 21:23:39 10° NNW 21:28:51 56° ENE 21:32:07 22° SE
Meteor 1-27 4.3 21:24:14 10° NNW 21:30:02 80° W 21:33:45 23° S
Cosmos 1782 4.1 21:30:35 10° NNE 21:33:44 26° ENE 21:35:07 21° ESE
Cosmos 2297 Rocket 2.6 21:30:08 10° NNW 21:35:43 56° NE 21:39:27 21° SE
ISS -3.7 21:33:31 10° WNW 21:36:50 60° SSW 21:37:41 42° SSE
Cosmos 1937 Rocket 3.4 21:34:18 21° S 21:37:39 67° ESE 21:42:44 10° NNE
DELTA 2 R/B (1) 4.4 21:33:17 10° SW 21:37:54 27° S 21:38:43 26° SSE
Cosmos 2098 Rocket 2.6 21:36:08 10° NNW 21:39:20 66° W 21:40:46 33° S
Cosmos 1680 Rocket 3.5 21:34:15 10° NNW 21:39:33 78° ENE 21:42:31 27° SSE
ALOS 2 3.4 21:44:36 24° ESE 21:46:45 40° ENE 21:50:53 10° N
CZ-4C R/B 2.5 21:43:00 10° WSW 21:47:27 58° NW 21:53:13 10° NE
Helios 1B 4.4 21:45:59 10° NNE 21:50:18 81° ESE 21:52:23 30° S
Cosmos 923 Rocket 4.1 21:45:42 10° NNW 21:50:52 66° WSW 21:53:32 28° S
Cosmos 858 Rocket 4.5 21:48:13 26° S 21:51:05 65° ESE 21:56:15 10° NNE
Cosmos 1697 Rocket 3.9 21:50:22 21° SE 21:51:57 24° ESE 21:56:23 10° NE
Cosmos 44 4.3 21:48:20 10° WSW 21:52:28 43° NW 21:56:46 10° NNE
Lacrosse 5 rocket 2.6 21:48:56 10° NW 21:52:38 38° NNE 21:56:20 10° E
Cosmos 1975 Rocket 4.0 21:53:28 16° SW 21:56:41 44° WNW 22:00:50 10° N
MetOp-A 3.2 21:55:24 39° SSE 21:56:44 79° ENE 22:00:32 10° NNW
Cosmos 2228 3.7 21:57:09 10° NNW 22:01:10 44° W 22:03:10 25° SSW
Cosmos 2227 Rocket 2.9 22:02:55 10° NNW 22:08:28 49° NE 22:12:21 19° ESE
GEOS 3 Rocket 4.4 22:04:47 10° ENE 22:09:30 32° ESE 22:10:46 29° SSE
Cosmos 1867 3.8 22:04:30 10° SW 22:09:57 70° NW 22:15:26 10° NE
Gbstr 26 Del rocket 3.8 22:05:49 10° WNW 22:11:07 64° SSW 22:15:20 22° SE
BREEZE M DEB (TANK) 4.1 22:08:59 10° WSW 22:15:53 - E 22:10:09 19° WSW
Cosmos 494 Rocket 3.9 22:06:57 10° NNW 22:12:12 86° ENE 22:14:39 32° SSE
BREEZE-M DEB (TANK) 2.6 22:11:05 10° W 22:17:55 85° S 22:19:47 21° E
CZ-2C R/B 3.9 22:16:28 10° N 22:21:12 74° WNW 22:23:40 28° SSW
Cosmos 1048 Rocket 4.3 22:15:54 10° NNW 22:21:15 64° ENE 22:24:05 28° SE
Cosmos 1898 Rocket 4.5 22:16:38 10° SW 22:21:36 44° WNW 22:26:39 10° NNE
Cosmos 2266 Rocket 4.0 22:19:20 28° S 22:22:53 77° E 22:29:19 10° NNE
Spot 4 3.9 22:21:20 35° S 22:23:23 75° WSW 22:28:13 10° NNW
ATLAS 5 CENTAUR R/B 4.3 22:21:29 10° NNW 22:24:06 17° NNE 22:27:02 10° ENE
Landsat 5 3.1 22:25:04 10° NNE 22:28:52 81° ESE 22:29:50 49° S
ARIANE 5 R/B 3.3 22:30:39 31° SSW 22:32:19 45° W 22:36:36 10° NNW
Cosmos 2315 Rocket 4.1 22:26:30 10° N 22:32:55 77° E 22:36:19 30° SSE
BlueWalker 3 2.3 22:33:44 10° WNW 22:36:56 41° SW 22:36:56 41° SW
Cosmos 1315 Rocket 3.6 22:33:57 10° N 22:37:37 41° ENE 22:38:48 31° ESE
Cosmos 1933 3.2 22:42:54 10° N 22:46:48 76° ENE 22:47:44 49° SSE
ATLAS 2AS CENTAUR R/B 3.1 22:43:20 10° NW 22:50:06 61° NE 22:56:44 10° ESE
Cosmos 1536 Rocket 4.3 22:48:20 27° SW 22:50:22 46° WNW 22:54:38 10° N
Cosmos 1656 4.2 22:47:10 15° SW 22:51:41 56° NW 22:57:08 10° NNE
RESURS DK-1 3.8 22:48:52 10° NW 22:52:03 23° WSW 22:52:29 22° WSW
S3M 4.2 22:47:00 10° NNW 22:53:13 61° W 22:56:23 29° SSW
USA 290 4.1 22:52:28 10° N 22:55:19 26° ENE 22:56:40 20° E
Cosmos 2263 Rocket 2.6 22:50:24 10° NNW 22:55:59 58° NE 22:59:46 20° SE
Cosmos 1606 Rocket 4.0 22:53:14 10° NNW 22:57:29 51° W 22:58:50 37° SW
Cosmos 2058 3.8 23:01:15 27° WSW 23:02:46 38° WNW 23:06:28 10° N
USA 215 3.2 22:58:07 18° SE 23:03:12 72° SW 23:09:46 10° WNW
Cosmos 1602 3.4 23:07:46 55° WSW 23:08:05 60° WNW 23:11:17 10° N
Cosmos 1782 4.0 23:05:38 10° NNW 23:08:44 26° W 23:09:26 24° WSW
Cosmos 1655 Rocket 4.0 23:09:38 30° SSW 23:13:01 82° W 23:19:26 10° N
Dummy Sat-01 4.5 23:18:25 57° S 23:19:06 90° ESE 23:22:47 10° N
Cosmos 1862 3.9 23:18:17 34° WSW 23:19:14 43° WNW 23:22:45 10° N
Cosmos 2297 Rocket 3.3 23:14:40 10° NW 23:19:25 29° WSW 23:21:13 24° SW
SL-16 R/B 4.3 23:17:42 10° ESE 23:20:02 13° E 23:22:24 10° ENE
Cosmos 1726 Rocket 4.4 23:16:19 10° NNW 23:20:40 42° W 23:22:11 32° SW
Cosmos 2219 3.4 23:15:23 10° NNW 23:21:06 72° ENE 23:24:45 23° SE
PSLV R/B 4.3 23:17:49 10° N 23:22:21 51° WNW 23:24:32 28° SW
Cosmos 2058 Rocket 3.1 23:18:06 10° NNW 23:22:34 75° W 23:23:59 43° S
ALOS 2 4.0 23:22:00 22° WSW 23:23:13 26° W 23:26:55 10° NW
Lacrosse 5 rocket 1.1 23:26:19 10° WNW 23:30:14 67° SW 23:31:06 49° SSE
Cosmos 1980 Rocket 2.3 23:28:23 34° S 23:30:41 60° ESE 23:36:14 10° NE
Orbus 7S? 4.4 23:29:20 37° S 23:30:57 53° SE 23:39:47 10° ENE
Cosmos 1356 Rocket 4.1 23:30:40 10° NNW 23:34:26 38° W 23:35:17 34° SW
Cosmos 1697 Rocket 2.9 23:32:02 25° SW 23:35:25 67° WNW 23:41:06 10° NNE
CZ-4C R/B 4.5 23:32:41 10° WNW 23:37:01 26° NNW 23:42:20 10° NE
CZ-2C R/B 2.9 23:36:52 25° SSE 23:40:10 71° ENE 23:45:46 10° N
Cosmos 1892 Rocket 4.3 23:39:39 29° WSW 23:41:18 41° WNW 23:45:25 10° N
PSLV R/B 4.3 23:38:32 10° N 23:42:26 53° WNW 23:43:44 35° SW
Cosmos 1441 Rocket 3.9 23:44:49 32° WSW 23:45:37 37° WNW 23:48:52 10° N
Cosmos 1602 Rocket 4.2 23:45:39 30° SE 23:47:15 45° E 23:51:25 10° NNE
GEOS 3 Rocket 4.0 23:42:31 10° NE 23:47:44 64° NW 23:51:46 17° WSW
IDEFIX/ARIANE 42P 4.2 23:44:06 10° NE 23:48:11 23° E 23:51:12 14° SE
Cosmos 1758 Rocket 3.7 23:47:54 38° SSE 23:49:28 68° E 23:53:54 10° NNE
Meteor 2-3 Rocket 4.1 23:46:44 27° SW 23:49:48 58° WNW 23:55:30 10° N
Cosmos 1626 Rocket 3.5 23:49:13 41° S 23:50:44 87° E 23:55:10 10° N
Cosmos 1844 Rocket 4.0 23:46:05 10° NNW 23:51:20 38° NE 23:56:32 10° ESE
CENTAUR R/B 4.0 23:49:44 14° SE 23:52:17 18° ESE 23:56:29 10° ENE
Cosmos 2227 Rocket 3.1 23:47:16 10° NW 23:52:19 34° WSW 23:54:06 28° SW
Geosat 3.9 23:49:52 10° NNE 23:54:54 88° NW 23:57:20 31° SSW
